Date String (YYYY-MM-DD hh:mm:ss) UTC,Instrument flags,Ambient pressure (hPa),Sample flow (lpm),Bypass flow (lpm),Sample temperature (°C),Ambient temperature (°C),ASC tube jacket temperature (°C),LED temperature (°C),Box temperature (°C),Sample RH (%),Span deviation,Mass concentration (μg/m³),Mass concentration (μg/m³),Mass concentration (μg/m³)
DateTimeUTC,F1_M11,P_M11,Q1_M11,Q2_M11,T1_M11,T2_M11,T3_M11,T4_M11,T5_M11,U1_M11,ZSPAN_M11,X0_M11,X2_M11,X1_M11
2021-10-09 13:00:00,,0820.6,5.01,0.00,29.8,28.8,00.0,39.1,31.4,17.2,0000.0,0003.24,0000.77,0000.43
2021-10-09 13:01:00,,0820.6,5.01,0.00,29.8,28.8,00.0,39.1,31.5,16.9,0000.0,0003.21,0000.77,0000.44
2021-10-09 13:02:00,,0820.6,4.99,0.00,29.8,28.8,00.0,39.0,31.4,17.6,0000.0,0002.19,0000.75,0000.44
2021-10-09 13:03:00,,0820.6,5.00,0.00,29.7,28.8,00.0,39.0,31.4,17.7,0000.0,0002.19,0000.75,0000.44
2021-10-09 13:04:00,,0820.4,5.00,0.00,29.7,28.8,00.0,39.0,31.4,17.6,0000.0,0001.58,0000.76,0000.43
2021-10-09 13:05:00,,0820.3,5.00,0.00,29.7,28.8,00.0,39.0,31.4,17.7,0000.0,0001.32,0000.70,0000.42
2021-10-09 13:06:00,,0820.4,5.00,0.00,29.7,28.7,00.0,39.0,31.3,17.7,0000.0,0001.06,0000.62,0000.41
2021-10-09 13:07:00,,0820.4,4.98,0.00,29.7,28.7,00.0,39.0,31.3,17.8,0000.0,0000.99,0000.59,0000.42
2021-10-09 13:08:00,,0820.3,5.00,0.00,29.6,28.7,00.0,39.0,31.3,17.8,0000.0,0001.02,0000.61,0000.43
2021-10-09 13:09:00,,0820.2,5.00,0.00,29.6,28.7,00.0,38.9,31.3,17.7,0000.0,0000.97,0000.60,0000.45
2021-10-09 13:10:00,,0820.2,5.00,0.00,29.6,28.7,00.0,38.9,31.3,17.5,0000.0,0000.95,0000.61,0000.45
2021-10-09 13:11:00,,0820.2,5.01,0.00,29.6,28.7,00.0,38.9,31.3,17.2,0000.0,0001.00,0000.64,0000.46
2021-10-09 13:12:00,,0820.2,5.00,0.00,29.6,28.7,00.0,38.9,31.3,17.5,0000.0,0001.16,0000.68,0000.47
2021-10-09 13:13:00,,0820.2,5.00,0.00,29.6,28.7,00.0,38.9,31.3,17.7,0000.0,0001.52,0000.74,0000.48
2021-10-09 13:14:00,,0820.3,5.00,0.00,29.6,28.7,00.0,38.9,31.2,17.3,0000.0,0001.56,0000.76,0000.50
2021-10-09 13:15:00,,0820.2,5.01,0.00,29.5,28.7,00.0,38.8,31.2,17.3,0000.0,0001.50,0000.76,0000.51
2021-10-09 13:16:00,,0820.2,4.99,0.00,29.5,28.7,00.0,38.8,31.2,16.8,0000.0,0001.63,0000.82,0000.54
2021-10-09 13:17:00,,0820.2,5.02,0.00,29.5,28.6,00.0,38.8,31.2,17.0,0000.0,0001.65,0000.85,0000.57
2021-10-09 13:18:00,,0820.2,5.00,0.00,29.5,28.6,00.0,38.8,31.1,17.4,0000.0,0001.70,0000.90,0000.60
2021-10-09 13:19:00,,0820.1,5.00,0.00,29.4,28.6,00.0,38.8,31.1,17.4,0000.0,0001.80,0000.94,0000.60
2021-10-09 13:20:00,,0820.2,4.99,0.00,29.4,28.6,00.0,38.7,31.1,16.9,0000.0,0001.83,0000.96,0000.61
2021-10-09 13:21:00,,0820.2,5.00,0.00,29.4,28.6,00.0,38.7,31.1,16.9,0000.0,0001.87,0000.98,0000.63
2021-10-09 13:22:00,,0820.1,5.00,0.00,29.4,28.6,00.0,38.7,31.1,16.4,0000.0,0001.94,0001.00,0000.65
2021-10-09 13:23:00,,0820.2,4.99,0.00,29.4,28.5,00.0,38.7,31.1,17.2,0000.0,0001.94,0001.02,0000.66
2021-10-09 13:24:00,,0820.1,5.00,0.00,29.3,28.5,00.0,38.7,31.0,17.8,0000.0,0001.77,0001.02,0000.65
2021-10-09 13:25:00,,0820.2,5.00,0.00,29.3,28.5,00.0,38.7,31.0,17.9,0000.0,0001.78,0001.01,0000.64
2021-10-09 13:26:00,,0820.2,4.98,0.00,29.3,28.5,00.0,38.6,31.0,18.1,0000.0,0001.76,0000.98,0000.63
2021-10-09 13:27:00,,0820.2,5.01,0.00,29.3,28.5,00.0,38.6,31.0,18.0,0000.0,0001.61,0000.92,0000.60
2021-10-09 13:28:00,,0820.2,5.01,0.00,29.3,28.5,00.0,38.6,31.0,17.7,0000.0,0001.57,0000.90,0000.57
2021-10-09 13:29:00,,0820.2,4.99,0.00,29.3,28.5,00.0,38.6,31.0,18.0,0000.0,0001.51,0000.85,0000.56
2021-10-09 13:30:00,,0820.2,5.00,0.00,29.3,28.5,00.0,38.6,31.0,18.0,0000.0,0001.53,0000.81,0000.55
2021-10-09 13:31:00,,0820.2,5.01,0.00,29.3,28.5,00.0,38.6,31.0,18.1,0000.0,0001.52,0000.77,0000.52
2021-10-09 13:32:00,,0820.2,5.01,0.00,29.3,28.5,00.0,38.6,31.0,18.1,0000.0,0001.48,0000.73,0000.49
2021-10-09 13:33:00,,0820.1,4.99,0.00,29.3,28.5,00.0,38.5,31.0,18.2,0000.0,0001.43,0000.68,0000.45
2021-10-09 13:34:00,,0820.1,5.01,0.00,29.3,28.5,00.0,38.5,31.0,17.7,0000.0,0001.34,0000.64,0000.43
2021-10-09 13:35:00,,0820.1,5.00,0.00,29.3,28.5,00.0,38.5,31.0,16.1,0000.0,0001.28,0000.64,0000.45
2021-10-09 13:36:00,,0820.1,4.99,0.00,29.3,28.5,00.0,38.5,31.0,15.2,0000.0,0001.34,0000.68,0000.50
2021-10-09 13:37:00,,0820.1,5.00,0.00,29.3,28.5,00.0,38.5,31.0,15.2,0000.0,0001.45,0000.75,0000.54
2021-10-09 13:38:00,,0820.1,5.01,0.00,29.3,28.5,00.0,38.5,31.0,14.9,0000.0,0001.97,0000.85,0000.60
2021-10-09 13:39:00,,0820.2,5.01,0.00,29.3,28.5,00.0,38.5,31.0,14.7,0000.0,0002.91,0000.98,0000.66
2021-10-09 13:40:00,,0820.2,4.99,0.00,29.3,28.5,00.0,38.5,31.0,14.8,0000.0,0004.52,0001.07,0000.71
2021-10-09 13:41:00,,0820.2,5.01,0.00,29.3,28.5,00.0,38.5,31.0,14.7,0000.0,0005.24,0001.15,0000.76
2021-10-09 13:42:00,,0820.2,4.99,0.00,29.3,28.5,00.0,38.5,31.0,14.8,0000.0,0005.29,0001.26,0000.82
2021-10-09 13:43:00,,0820.2,5.00,0.00,29.3,28.5,00.0,38.5,31.0,14.8,0000.0,0005.43,0001.34,0000.87
2021-10-09 13:44:00,,0820.2,5.01,0.00,29.3,28.5,00.0,38.5,31.0,14.8,0000.0,0005.47,0001.41,0000.93
2021-10-09 13:45:00,,0820.2,4.99,0.00,29.3,28.5,00.0,38.5,30.9,14.7,0000.0,0005.55,0001.48,0001.00
2021-10-09 13:46:00,,0820.2,5.00,0.00,29.3,28.5,00.0,38.5,31.0,14.8,0000.0,0005.62,0001.53,0001.04
2021-10-09 13:47:00,,0820.2,5.00,0.00,29.3,28.5,00.0,38.5,30.9,14.9,0000.0,0005.62,0001.55,0001.05
2021-10-09 13:48:00,,0820.2,5.00,0.00,29.3,28.5,00.0,38.5,31.0,14.9,0000.0,0005.63,0001.57,0001.07
2021-10-09 13:49:00,,0820.2,4.99,0.00,29.3,28.4,00.0,38.5,30.9,15.0,0000.0,0005.36,0001.55,0001.07
2021-10-09 13:50:00,,0820.2,5.01,0.00,29.3,28.4,00.0,38.5,30.9,15.1,0000.0,0004.70,0001.49,0001.06
2021-10-09 13:51:00,,0820.2,4.99,0.00,29.3,28.4,00.0,38.5,30.9,15.1,0000.0,0003.17,0001.49,0001.06
2021-10-09 13:52:00,,0820.2,5.00,0.00,29.2,28.4,00.0,38.5,30.9,15.0,0000.0,0002.35,0001.48,0001.06
2021-10-09 13:53:00,,0820.2,4.99,0.00,29.2,28.4,00.0,38.5,30.9,14.9,0000.0,0002.37,0001.47,0001.06
2021-10-09 13:54:00,,0820.2,4.99,0.00,29.2,28.4,00.0,38.5,30.9,14.9,0000.0,0002.31,0001.46,0001.07
2021-10-09 13:55:00,,0820.2,5.01,0.00,29.2,28.3,00.0,38.5,30.9,15.0,0000.0,0002.34,0001.49,0001.08
2021-10-09 13:56:00,,0820.3,5.00,0.00,29.2,28.3,00.0,38.4,30.9,15.0,0000.0,0002.59,0001.48,0001.07
2021-10-09 13:57:00,,0820.2,4.99,0.00,29.2,28.3,00.0,38.4,30.8,15.0,0000.0,0002.94,0001.46,0001.06
2021-10-09 13:58:00,,0820.2,5.00,0.00,29.1,28.3,00.0,38.4,30.8,14.9,0000.0,0002.95,0001.44,0001.06
2021-10-09 13:59:00,,0820.2,5.00,0.00,29.1,28.3,00.0,38.4,30.8,14.8,0000.0,0004.20,0001.44,0001.07
